Regional Weather Roundup
Issued by NWS

Home | Current Version | Previous Version | Graphics & Text | Print | Product List | Glossary On
Versions: 1 2 3 4 5 6 7 8 9 10 11 12 13 14 15 16 17 18 19 20 21 22 23 24 25 26 27 28 29 30 31 32 33 34 35 36 37 38 39 40 41 42 43 44 45 46 47 48 49 50
000
ASUS44 KMEG 241600
RWRTN
TENNESSEE HOURLY STATE WEATHER ROUNDUP
NATIONAL WEATHER SERVICE MEMPHIS TN
1000 AM CST FRI NOV 24 2017

TNZ002-004-019-021-049-052-054-088>092-241700-
WEST TENNESSEE

CITY           SKY/WX    TMP DP  RH WIND       PRES   REMARKS
MEMPHIS INTL   PTSUNNY   52  29  41 S8G17     30.01F
NWS MEMPHIS      N/A     51 N/A N/A MISG        N/A
JACKSON        MOSUNNY   53  29  39 S9        30.01F
DYERSBURG      MOSUNNY   50  33  52 S6        29.99F
$$

TNZ008-025-027-028-033-062-065-066-241700-
NORTH MIDDLE TENNESSEE

CITY           SKY/WX    TMP DP  RH WIND       PRES   REMARKS
NASHVILLE      MOSUNNY   53  28  38 CALM      30.03S
CLARKSVILLE    SUNNY     49  26  41 S7        30.00F
SMYRNA         SUNNY     51  30  44 SE5       30.03F
CROSSVILLE     SUNNY     53  35  50 VRB7      30.01F
$$

TNZ061-075-076-078-094-096-097-241700-
SOUTH MIDDLE TENNESSEE

CITY           SKY/WX    TMP DP  RH WIND       PRES   REMARKS
WINCHESTER     SUNNY     57  37  47 SW3       30.02S
$$

TNZ017-018-042-046-047-241700-
NORTHEAST TENNESSEE

CITY           SKY/WX    TMP DP  RH WIND       PRES   REMARKS
TRI CITIES     SUNNY     47  36  65 VRB3      30.04F
$$

TNZ012-013-036-069-073-074-241700-
CENTRAL EAST TENNESSEE

CITY           SKY/WX    TMP DP  RH WIND       PRES   REMARKS
KNOXVILLE      SUNNY     49  40  71 CALM      30.04S
OAK RIDGE      SUNNY     46  39  76 CALM      30.06F
$$

TNZ083-085-099-241700-
SOUTHEAST TENNESSEE

CITY           SKY/WX    TMP DP  RH WIND       PRES   REMARKS
CHATTANOOGA    MOSUNNY   47  37  68 CALM      30.06S
$$

SKY/WX REPORTED AS FAIR MEANS FEW OR NO CLOUDS BELOW
12 THOUSAND FEET.





USA.gov is the U.S. government's official web portal to all federal, state and local government web resources and services.